Wind_Speed
17 16 14 11 15 16 10 9 6 6 4 5 2 2 5 7 11 16 18 16 14 14 15 14 3 4 4 3 7 7 8 9 10 12 13 13 14 14 15 15 16 17 16 15
20 14 14 21 23 17 15 13 10 10 5 2 4 2 1 3 9 13 16 16 16 15 14 16 10 1 3 3 1 2 2 2 6 4 3 1 6 10 13 17 18 17 17 16
22 18 24 23 23 21 17 18 17 15 10 6 3 4 3 2 7 12 16 18 16 14 12 10 10 8 7 7 5 6 7 8 7 10 9 12 12 5 6 10 10 12 6 6
28 33 25 24 26 22 19 19 22 21 14 7 6 5 7 5 3 6 11 16 20 10 8 6 4 5 5 5 5 5 5 5 7 7 7 7 8 6 8 14 10 4 5 6
31 32 28 29 29 28 23 32 26 24 23 14 10 8 6 6 7 7 7 14 15 16 5 5 3 3 1 2 3 2 1 3 4 5 5 5 6 7 7 7 6 6 7 6
38 33 32 29 30 29 27 28 26 26 26 22 12 16 6 9 8 10 11 11 15 16 10 8 6 6 6 6 6 5 5 4 2 2 4 4 4 5 5 5 5 3 4 2
35 37 34 30 29 28 27 23 25 28 25 23 16 23 12 15 10 13 19 15 15 17 17 13 11 10 9 8 6 5 5 4 3 1 1 1 1 2 3 4 5 5 3 3
35 28 35 33 31 28 30 29 27 28 25 22 27 28 18 16 19 9 19 19 17 15 18 14 13 8 9 10 8 8 5 4 5 6 5 5 4 4 4 4 4 5 5 6
31 32 39 32 33 35 31 36 28 30 29 30 24 21 24 17 13 9 15 19 18 12 16 14 10 10 11 13 13 11 14 14 12 11 12 11 9 10 11 10 10 10 10 9
24 24 26 32 34 34 36 32 29 32 32 33 28 26 24 18 18 13 13 18 17 14 13 12 10 10 12 15 15 14 15 16 16 14 14 13 9 11 12 12 13 12 11 11
18 21 20 25 29 33 36 38 38 33 27 29 30 28 23 26 18 16 13 20 17 18 17 12 13 12 10 12 15 15 15 16 17 18 18 17 15 14 14 12 11 12 14 13
18 16 18 19 24 32 37 34 28 30 34 38 37 32 25 31 27 21 19 22 22 21 25 18 12 12 10 11 13 14 15 17 17 18 20 21 21 18 17 12 13 13 14 14
22 18 15 13 21 27 32 35 40 32 30 33 34 28 25 36 36 29 25 23 26 25 27 22 15 13 13 15 14 14 15 15 12 14 17 21 25 22 21 18 18 19 19 18
25 24 24 16 23 27 24 30 35 37 33 33 34 34 35 34 33 32 26 26 23 31 30 28 21 14 11 9 7 9 8 8 13 15 17 22 21 27 27 25 25 25 26 23
25 29 29 32 27 26 25 28 27 30 33 34 30 30 32 34 38 33 26 26 26 31 33 32 30 21 15 21 12 11 13 11 14 15 17 24 27 31 22 25 26 27 28 27
21 22 27 34 33 35 29 29 31 31 30 33 34 36 36 39 33 30 24 24 27 28 31 30 36 30 20 19 18 12 14 16 16 16 20 24 24 28 25 24 25 27 27 28
20 23 26 26 28 34 39 28 27 34 30 31 30 27 35 29 29 29 25 21 30 30 28 26 28 31 24 21 19 16 18 20 11 19 24 22 19 23 23 26 27 25 24 24
21 26 25 24 24 30 24 32 31 30 32 31 28 28 26 24 25 28 24 24 27 31 29 25 24 27 26 23 25 25 24 25 19 24 26 27 30 28 25 25 27 28 22 21
22 23 26 25 24 24 20 29 37 33 28 29 27 26 28 25 27 30 30 27 26 29 31 26 26 27 30 31 30 31 33 29 28 28 32 30 31 31 32 29 30 25 22 21
22 22 23 23 23 23 19 23 26 33 32 34 30 30 29 28 25 32 32 35 29 26 26 28 29 28 27 34 36 36 36 37 28 32 34 38 36 36 33 28 32 26 25 23
24 25 25 25 26 23 25 20 23 28 29 34 33 32 32 32 34 34 32 35 39 32 30 29 29 30 29 28 32 32 34 33 32 39 41 45 49 39 35 31 33 31 30 25
28 30 29 29 29 29 26 22 25 28 32 38 40 38 35 36 37 35 32 30 37 39 36 35 35 34 32 31 31 33 32 30 37 39 41 45 49 41 36 35 32 34 31 29
31 32 33 34 32 31 27 27 24 24 27 38 44 40 42 41 39 34 30 28 33 39 42 41 39 38 38 38 37 35 34 38 36 36 37 40 43 57 48 33 33 33 34 33
31 36 37 38 33 36 34 30 29 27 30 34 50 52 43 49 45 32 29 28 28 36 42 45 45 43 43 42 42 41 38 35 38 38 35 38 37 31 22 22 31 36 38 36
36 41 36 41 37 40 40 39 35 32 29 33 36 51 52 50 43 32 30 28 26 24 26 37 47 47 48 48 49 50 46 41 39 41 36 37 34 34 33 31 36 38 43 39
46 46 45 44 42 45 46 45 39 34 31 30 34 35 41 50 39 33 34 33 30 31 30 28 30 39 45 45 45 42 44 43 42 39 37 40 39 31 30 34 33 34 37 34
Wind_Direction
238 226 222 214 203 202 212 233 252 266 288 166 70 290 345 18 12 2 4 25 27 31 27 16 38 186 203 239 287 240 253 262 260 262 267 257 256 254 264 265 261 266 268 277
241 217 217 226 214 206 234 235 248 258 249 220 131 183 298 26 15 359 0 19 27 26 25 17 9 164 200 299 250 265 247 121 98 59 39 314 264 260 278 268 264 265 275 272
238 238 229 227 232 221 228 245 244 244 248 268 222 299 5 333 11 12 359 5 13 12 12 17 29 70 87 90 92 102 97 102 82 86 82 75 71 12 297 311 274 273 248 245
236 232 225 232 232 230 232 253 242 256 251 266 251 235 301 266 328 4 3 359 356 356 355 358 34 72 86 89 85 112 103 112 89 78 79 71 67 67 45 49 53 71 95 126
244 241 237 228 234 234 221 237 231 244 255 259 248 262 287 243 257 293 324 338 342 345 317 307 285 287 339 332 335 309 176 144 108 93 74 56 57 61 58 55 74 93 89 100
244 247 244 236 239 241 229 236 237 242 248 257 255 245 247 254 249 273 294 301 321 325 321 272 260 254 274 288 307 291 271 257 195 103 91 65 47 46 37 45 48 56 59 44
244 248 246 245 244 247 250 247 247 249 250 261 257 252 234 232 233 277 272 283 297 309 327 303 258 259 271 270 293 290 287 287 274 232 176 169 34 28 35 30 12 19 8 331
244 248 252 245 245 248 250 245 241 247 246 256 257 263 258 234 242 269 245 257 275 299 326 312 249 253 266 261 271 276 280 310 314 308 297 280 284 278 266 283 302 307 311 305
251 251 254 253 243 240 244 247 250 244 242 251 240 267 267 263 253 294 261 249 263 273 311 331 287 272 262 255 261 265 272 283 294 293 287 282 275 283 284 283 284 284 279 285
251 252 253 247 243 243 241 243 243 247 246 246 255 257 259 258 267 283 284 243 253 259 287 314 324 295 263 252 254 264 267 275 277 282 285 277 263 277 281 280 274 275 280 286
248 248 244 245 245 241 244 247 250 245 240 249 255 261 266 267 273 279 286 234 248 248 259 294 308 318 286 258 255 259 267 277 279 280 285 277 271 284 282 283 277 275 279 285
251 251 240 233 239 238 239 242 244 246 249 254 253 245 263 270 269 278 283 246 250 254 257 269 291 307 281 257 257 259 269 271 274 281 287 281 274 278 275 277 287 293 298 301
259 267 263 258 254 248 242 244 247 247 250 250 250 261 263 256 266 270 267 267 244 250 262 262 266 284 293 256 249 254 262 273 278 300 297 287 280 276 276 275 278 286 291 294
252 262 265 245 227 232 237 244 247 248 249 256 259 263 257 250 268 262 260 254 253 243 254 263 260 266 248 215 244 261 268 281 305 302 295 286 292 282 285 279 280 284 288 290
260 259 262 263 262 247 245 243 249 251 254 254 255 257 255 253 253 260 259 248 243 242 245 256 265 262 246 241 255 254 265 268 289 292 291 288 277 311 266 280 283 283 284 287
272 272 265 262 259 264 248 240 242 246 251 258 260 257 261 258 255 254 250 239 232 244 253 260 256 260 258 246 253 266 269 260 278 297 290 303 307 318 256 276 279 288 286 291
286 280 275 277 267 253 255 249 248 242 245 249 255 261 253 254 254 254 251 234 231 241 254 267 246 249 248 249 257 266 269 270 292 294 295 295 297 295 296 277 265 279 283 286
283 283 282 280 281 266 265 250 246 249 250 249 245 251 251 247 245 247 243 228 228 238 249 261 238 240 244 243 250 255 264 271 281 286 288 289 282 289 305 288 268 266 276 282
278 281 282 284 282 284 250 256 249 249 250 242 241 238 241 238 240 239 233 235 235 236 243 251 241 243 244 252 253 254 260 269 275 278 285 282 276 283 289 295 269 261 269 278
280 278 278 283 281 278 278 278 273 258 258 252 244 240 236 229 218 243 231 232 230 236 237 242 251 248 253 254 253 252 257 264 283 283 277 268 266 271 286 285 266 259 266 270
278 282 281 277 280 279 271 273 269 258 248 251 244 239 239 236 232 234 240 234 233 229 233 235 240 244 245 247 253 260 263 271 289 282 291 287 279 268 272 277 263 254 264 267
271 275 279 280 278 281 281 276 275 265 250 244 248 247 236 236 241 243 245 245 240 234 231 232 236 244 246 248 256 262 269 281 271 286 290 293 287 268 269 271 261 248 259 265
266 268 269 268 272 279 275 272 272 264 259 244 238 234 240 238 238 240 246 248 237 236 235 233 233 237 242 247 253 260 265 267 276 279 284 293 296 303 294 256 244 245 256 262
275 265 265 266 266 267 268 267 264 263 263 257 237 234 225 233 233 228 244 244 239 236 234 234 234 236 242 248 251 255 261 269 268 274 287 295 300 310 294 283 259 253 255 263
281 278 272 264 262 260 260 262 262 261 262 260 246 234 235 240 219 218 229 234 235 242 248 242 237 241 244 249 254 259 263 264 267 270 279 291 295 297 305 309 276 269 258 264
283 276 273 270 258 253 254 256 257 256 255 254 246 244 236 240 221 220 228 232 248 267 267 264 253 240 245 252 257 260 261 260 262 267 279 285 290 300 299 291 295 284 277 265
Height
5917 5921 5924 5927 5927 5927 5928 5929 5929 5929 5928 5927 5927 5926 5925 5922 5919 5915 5913 5910 5909 5906 5904 5902 5901 5900 5902 5902 5902 5902 5902 5901 5901 5901 5900 5900 5900 5900 5900 5900 5900 5900 5900 5901
5912 5918 5922 5923 5923 5925 5927 5927 5927 5928 5929 5928 5927 5927 5926 5924 5921 5918 5914 5912 5910 5908 5905 5903 5901 5900 5900 5901 5901 5900 5900 5901 5900 5899 5898 5897 5897 5898 5898 5897 5897 5897 5897 5898
5908 5914 5914 5916 5919 5922 5924 5925 5924 5925 5927 5928 5928 5929 5927 5925 5923 5920 5917 5914 5913 5911 5909 5907 5904 5902 5902 5903 5903 5902 5902 5902 5902 5901 5900 5898 5898 5898 5897 5895 5894 5895 5895 5896
5903 5905 5908 5911 5913 5918 5920 5925 5921 5923 5925 5929 5928 5929 5929 5926 5924 5921 5918 5916 5914 5913 5911 5910 5908 5907 5907 5907 5906 5905 5905 5904 5904 5903 5902 5901 5899 5899 5898 5896 5896 5896 5896 5896
5898 5899 5902 5905 5908 5912 5915 5912 5917 5919 5921 5924 5926 5927 5929 5926 5923 5921 5919 5916 5914 5913 5911 5911 5910 5910 5910 5909 5908 5907 5907 5906 5906 5905 5904 5903 5902 5901 5899 5899 5899 5899 5898 5899
5890 5895 5898 5902 5903 5906 5910 5911 5914 5916 5917 5918 5923 5924 5927 5927 5924 5921 5920 5917 5914 5912 5912 5910 5910 5910 5910 5910 5909 5908 5908 5907 5907 5906 5906 5905 5904 5903 5902 5901 5901 5900 5899 5900
5886 5887 5891 5895 5898 5901 5904 5909 5910 5912 5914 5915 5921 5918 5922 5922 5921 5921 5918 5916 5913 5911 5910 5910 5909 5909 5909 5909 5909 5909 5908 5908 5907 5907 5906 5906 5905 5904 5904 5903 5902 5901 5900 5900
5880 5885 5884 5889 5892 5896 5897 5901 5905 5907 5912 5915 5913 5911 5916 5917 5916 5916 5914 5913 5912 5911 5908 5907 5907 5907 5907 5908 5908 5909 5909 5908 5908 5906 5906 5904 5904 5904 5903 5903 5902 5901 5899 5898
5875 5878 5877 5882 5885 5888 5891 5892 5899 5899 5904 5906 5909 5909 5906 5911 5912 5912 5910 5910 5909 5908 5907 5906 5906 5905 5905 5906 5907 5908 5907 5906 5906 5905 5904 5903 5903 5902 5901 5900 5898 5898 5897 5895
5869 5872 5873 5873 5877 5880 5883 5885 5889 5892 5895 5897 5902 5903 5904 5906 5907 5908 5906 5906 5906 5906 5905 5904 5904 5903 5903 5903 5904 5905 5904 5904 5904 5905 5904 5903 5902 5901 5900 5897 5895 5893 5892 5891
5862 5864 5867 5868 5871 5874 5876 5878 5881 5886 5889 5891 5895 5899 5902 5897 5901 5904 5903 5902 5903 5903 5903 5902 5901 5900 5900 5900 5901 5901 5902 5902 5901 5901 5901 5900 5899 5898 5897 5895 5893 5891 5888 5887
5855 5858 5861 5863 5863 5864 5868 5871 5875 5877 5880 5880 5884 5890 5895 5891 5894 5897 5899 5899 5900 5900 5899 5900 5899 5898 5897 5897 5897 5898 5898 5898 5898 5899 5898 5897 5896 5895 5894 5893 5892 5890 5888 5885
5850 5853 5855 5860 5860 5859 5861 5864 5866 5870 5873 5872 5876 5881 5885 5885 5886 5889 5892 5893 5894 5895 5895 5896 5896 5895 5893 5892 5893 5894 5895 5896 5897 5897 5896 5896 5895 5893 5891 5890 5887 5886 5884 5882
5846 5847 5848 5853 5854 5852 5855 5856 5857 5860 5863 5866 5868 5871 5873 5875 5878 5879 5883 5885 5887 5889 5890 5891 5892 5891 5891 5890 5891 5893 5894 5894 5895 5894 5893 5891 5891 5888 5888 5886 5882 5881 5880 5877
5837 5839 5840 5840 5842 5845 5847 5850 5851 5851 5854 5856 5862 5863 5863 5865 5866 5871 5874 5876 5880 5882 5884 5885 5885 5887 5888 5888 5888 5890 5891 5891 5890 5888 5887 5885 5883 5880 5880 5879 5877 5875 5873 5872
5830 5831 5831 5831 5834 5835 5838 5842 5844 5845 5846 5846 5849 5851 5855 5855 5860 5863 5867 5869 5872 5875 5876 5878 5879 5881 5882 5884 5884 5885 5885 5886 5884 5883 5882 5881 5880 5877 5874 5874 5873 5871 5869 5868
5825 5824 5823 5823 5824 5826 5826 5833 5838 5837 5839 5840 5842 5845 5842 5848 5851 5855 5859 5862 5865 5867 5869 5870 5872 5875 5875 5877 5878 5878 5877 5878 5879 5879 5877 5876 5875 5872 5869 5867 5866 5865 5864 5862
5821 5818 5816 5816 5816 5815 5822 5822 5826 5828 5830 5833 5834 5836 5838 5841 5844 5847 5851 5854 5857 5860 5862 5864 5866 5867 5869 5869 5870 5870 5871 5871 5871 5871 5871 5871 5868 5865 5863 5861 5858 5857 5856 5856
5813 5811 5810 5810 5809 5810 5813 5814 5815 5818 5822 5822 5826 5828 5830 5834 5838 5838 5841 5845 5849 5852 5855 5857 5859 5861 5862 5862 5863 5863 5863 5864 5865 5864 5863 5862 5860 5859 5857 5855 5852 5851 5849 5849
5807 5805 5805 5804 5804 5804 5805 5804 5806 5809 5813 5812 5817 5818 5822 5826 5830 5825 5832 5836 5840 5843 5847 5850 5852 5853 5855 5855 5855 5855 5856 5857 5859 5857 5856 5851 5849 5849 5848 5846 5846 5845 5843 5840
5798 5798 5797 5796 5796 5797 5796 5799 5798 5800 5806 5802 5805 5808 5812 5817 5819 5818 5820 5826 5830 5834 5837 5840 5843 5845 5846 5847 5848 5849 5850 5851 5852 5850 5848 5847 5842 5841 5841 5838 5836 5837 5836 5834
5791 5789 5790 5789 5788 5788 5788 5790 5790 5790 5790 5792 5795 5799 5802 5805 5809 5811 5813 5815 5820 5824 5827 5830 5834 5836 5839 5840 5841 5842 5844 5846 5844 5842 5841 5840 5833 5828 5831 5829 5826 5827 5828 5827
5783 5782 5781 5781 5782 5778 5779 5780 5781 5779 5780 5779 5781 5787 5791 5794 5797 5800 5804 5806 5809 5812 5817 5820 5823 5826 5828 5831 5833 5835 5836 5835 5836 5835 5833 5830 5827 5822 5815 5817 5816 5817 5819 5817
5772 5770 5770 5769 5772 5767 5767 5768 5770 5769 5767 5768 5770 5774 5773 5781 5785 5788 5793 5796 5799 5801 5804 5808 5812 5816 5818 5821 5823 5823 5825 5826 5825 5825 5824 5822 5818 5809 5809 5809 5810 5809 5809 5808
5760 5755 5759 5755 5758 5756 5755 5755 5755 5757 5755 5754 5755 5759 5763 5761 5771 5776 5782 5786 5789 5791 5794 5797 5801 5805 5808 5810 5812 5813 5816 5816 5816 5815 5815 5815 5811 5808 5804 5803 5803 5800 5798 5798
5742 5740 5740 5741 5742 5740 5739 5739 5742 5743 5744 5743 5744 5747 5751 5756 5760 5764 5771 5775 5779 5782 5784 5787 5791 5793 5796 5798 5799 5802 5804 5805 5806 5806 5806 5805 5803 5799 5795 5795 5793 5791 5789 5790